SL-16 DEB

Satellite information

Favourite Embed

Satellite Type and Status

DEBRISIN ORBIT

Key statistics

Satellite SL-16 DEB at a glance.

Uptime

11884

Days in orbit

Revolutions

≈ 14.1

Per day

Orbit

LEO

Low Earth Orbit

Inclination

71.0

Latest

Satellite identification and parameters

Extended collection of information and parameters for SL-16 DEB.

Object identification

Identified? True

Debris? True

Object name: SL-16 DEB

International designator: 1992-093BK

Object number (NORAD): 22370

Object ID (CCSDS): 22370

Country: COMMONWEALTH OF INDEPENDENT STATES (CIS)

Current information (Y/N): Y

RCS size: SMALL

Orbital parameters

Period: 102.359 minutes

Inclination: 70.9732 deg

SMA: 7248.455 km

Apoapsis: 948.981 km

Periapsis: 791.66 km

RAAN: 228.3835 deg

Eccentricy: 0.0108521

Argument of periapsis: 6.6213 deg

Mean anomaly: 108.3641 deg

Mean motion: 14.06807086 rev/day

Mean motion (dot): 0.00000421 rev/day2

B* drag term: 0.00026647 1/REarth

Two-line elements (TLE)

Creation date: July 7, 2025, 6:34 p.m.

Reference frame: TEME

Reference center: EARTH

Epoch: July 7, 2025, 12:49 p.m. UTC

TLE line 0: 0 SL-16 DEB

TLE line 1: 1 22370U 92093BK 25188.53466478 .00000421 00000-0 26647-3 0 9999

TLE line 2: 2 22370 70.9732 228.3835 0108521 6.6213 108.3641 14.06807086663996

Live tracking on map

Real-time ground track for satellite SL-16 DEB.

In-orbit conjunctions

A list of the most updated potential collisions computed for object SL-16 DEB.

Target Orbit TCA Probability of collision Miss distance Type
FENGYUN 1C DEB SSO 2024-09-27 04:55:56 0.0008571212 606.0 (m) DEBRIS
FENGYUN 1C DEB SSO 2024-07-03 17:10:35 0.0001035518 152.0 (m) DEBRIS

Associated space launch

Second generation ELING satellite

SL-16 DEB was lifted into orbit during the mission ‘Zenit-2 | Tselina-2 12’, on board a Zenit-2 space rocket.

The launch took place on Dec. 25, 1992, 5:56 a.m. from 45/1.

For more information about the launch, click the button.

Launch to space Zenit-2 | Tselina-2 12
Zenit-2 | Tselina-2 12

Agency: N/A

Status: Launch Successful

Launch date: Dec. 25, 1992, 5:56 a.m. UTC

Rocket: Zenit-2

Launch pad: 45/1

Location: Baikonur Cosmodrome, Republic of Kazakhstan

...

Latest news about this satellite

There are no fresh news available about this satellite. Check back as we update our databases every day.


Newsletter sign-up

Weekly statistics, charts and insights to help you stay on top of the space industry.